Wind_Speed
27 27 27 26 25 22 20 18 15 14 15 17 14 10 11 12 13 15 16 17 18 19 20 20 20 20 20 21 22 23 25 25 26 28 30 32 34 37 40 43 46 48 51
27 27 27 26 23 20 19 17 15 14 15 14 12 12 13 15 15 16 18 19 19 20 21 22 21 21 21 22 24 26 28 30 29 29 30 32 35 36 37 40 43 47 52
26 27 26 25 23 19 17 17 15 15 14 14 15 15 15 16 16 17 18 18 19 20 21 23 23 24 24 26 28 29 31 31 32 31 32 33 35 36 37 39 40 42 44
27 27 25 23 20 18 16 15 15 14 14 15 17 18 18 17 18 18 20 20 23 24 25 27 28 28 28 30 31 32 33 31 31 32 33 33 34 35 35 38 41 44 45
29 26 23 21 20 18 16 14 15 16 17 17 18 19 20 20 22 22 23 25 28 29 30 31 33 33 32 33 34 35 33 33 32 32 34 33 32 33 37 39 41 44 45
29 25 21 19 18 16 16 16 17 19 19 19 20 22 23 24 26 28 29 31 33 33 32 35 37 37 36 37 35 35 35 33 34 33 34 35 36 38 40 41 43 46 49
29 24 21 21 18 17 18 19 20 21 22 22 23 24 26 28 30 31 33 36 37 37 37 39 41 41 40 40 37 36 34 34 35 35 37 38 41 44 45 46 48 49 51
29 25 23 23 21 19 20 21 22 24 25 25 26 28 30 32 33 36 37 38 39 40 42 43 45 43 41 39 37 35 35 36 38 40 41 41 42 44 46 48 49 49 49
30 28 26 26 24 24 23 24 25 26 28 29 30 33 34 35 37 38 40 41 42 44 46 46 46 41 39 39 36 36 37 39 41 42 44 47 48 48 50 52 54 54 54
32 31 29 29 27 27 27 27 29 30 31 32 34 35 37 38 39 40 43 45 46 47 48 47 45 41 40 38 38 39 40 43 45 46 49 49 52 55 57 56 58 60 63
34 35 32 31 31 30 30 29 29 31 33 34 37 39 40 41 41 43 46 46 48 49 49 48 45 43 40 39 40 41 43 47 49 50 50 51 54 58 58 59 61 64 67
38 37 36 36 35 34 33 32 32 33 35 38 41 42 42 42 43 44 47 49 51 51 49 48 45 42 41 42 43 44 47 50 52 52 53 55 57 59 61 64 67 68 70
43 41 40 39 39 39 37 36 35 37 38 41 43 44 45 44 45 47 50 52 52 51 50 48 46 43 42 43 45 48 49 49 51 54 56 58 61 62 65 69 72 72 71
48 44 43 42 41 40 39 39 40 41 42 44 45 47 47 48 49 52 53 53 53 52 50 49 47 45 45 44 46 46 48 52 54 56 58 61 63 66 69 71 74 72 66
51 48 45 43 42 41 42 42 43 45 46 47 49 49 49 52 54 54 54 54 55 54 52 50 48 47 47 46 48 50 53 55 57 59 61 63 65 68 70 68 67 61 52
53 51 47 45 45 44 44 45 46 48 49 50 51 52 53 56 55 55 55 55 56 53 51 50 49 48 49 50 52 55 58 60 61 62 64 66 68 69 67 66 59 48 41
55 53 50 49 48 47 47 47 49 51 52 52 53 55 57 55 55 57 56 56 54 52 51 51 52 53 54 56 59 62 64 65 66 66 67 68 69 68 66 62 53 45 43
58 54 53 52 51 49 48 49 51 53 53 54 56 56 55 55 57 57 58 56 55 53 54 55 56 57 60 62 65 67 69 70 70 71 70 71 71 70 67 62 54 43 39
58 56 54 53 50 49 49 51 53 54 54 55 58 55 55 58 58 58 58 57 57 57 58 59 60 63 66 67 68 72 73 74 75 76 77 75 72 72 71 65 56 48 40
61 59 57 54 50 51 52 53 53 55 57 58 55 55 58 58 59 59 60 61 62 62 63 64 65 66 69 73 74 77 78 80 80 81 81 80 77 75 74 66 60 54 48
63 60 56 53 53 52 54 55 56 57 55 52 55 57 58 60 62 62 64 65 66 67 68 69 71 71 74 77 79 81 83 84 85 84 82 80 80 79 76 71 63 59 56
61 58 56 54 53 53 54 56 56 55 53 56 59 58 60 62 64 66 66 67 68 70 72 73 75 77 80 82 84 87 88 89 88 88 85 83 82 82 79 77 70 64 60
62 60 58 56 55 55 57 57 57 57 59 59 61 61 62 64 67 68 69 69 71 73 74 76 80 83 85 88 90 92 94 94 96 94 92 92 89 85 82 76 74 72 69
64 63 61 59 58 60 60 61 61 61 63 62 62 62 65 67 69 71 72 74 75 77 80 84 87 90 92 94 95 96 95 97 99 100 100 99 95 89 81 79 78 73 75
67 66 64 62 63 63 63 63 63 63 64 64 64 65 67 70 73 75 76 79 81 83 87 91 94 96 95 96 97 98 101 102 103 103 104 104 95 88 86 88 86 81 77
68 66 64 64 64 63 63 64 65 65 66 66 66 68 70 73 76 77 80 83 85 89 94 97 99 99 99 101 102 103 104 105 106 112 109 107 103 105 99 95 87 82 84
Wind_Direction
287 284 288 290 289 291 294 294 296 297 303 306 305 309 319 319 309 304 305 302 304 303 300 298 300 293 284 284 285 287 287 286 286 284 282 280 277 272 268 266 265 264 264
281 280 283 286 284 287 290 289 293 293 301 305 307 313 312 314 313 313 306 304 306 306 306 302 301 299 291 291 287 289 290 289 287 287 285 284 280 278 276 274 272 270 269
273 279 281 280 279 281 284 285 289 295 302 309 310 311 316 319 318 314 313 308 308 307 306 304 301 300 298 295 293 291 292 292 289 288 290 285 282 281 282 280 278 275 274
272 275 273 272 273 274 278 281 289 294 301 306 311 314 316 320 321 319 318 315 312 310 308 306 303 300 298 297 295 292 289 291 291 283 289 290 288 287 289 289 287 282 279
273 271 264 266 268 267 271 275 285 291 297 306 313 315 315 317 317 316 314 313 312 310 308 307 308 305 301 299 299 296 291 290 293 287 286 290 290 290 291 289 287 285 282
270 259 258 259 261 268 274 280 290 294 300 305 307 308 309 312 313 312 312 312 311 311 310 310 310 308 304 306 299 297 292 293 296 298 293 293 296 296 297 294 292 290 287
262 249 245 250 258 269 278 284 291 295 298 301 304 306 308 309 310 310 311 313 313 313 311 311 312 310 307 307 300 301 296 299 298 299 298 296 296 293 291 288 288 286 283
249 237 241 249 257 270 280 284 289 293 297 300 302 303 304 306 308 310 312 314 314 313 310 312 314 312 309 308 303 303 301 301 299 299 299 297 294 292 289 287 288 286 283
238 239 241 249 256 270 279 286 291 293 295 299 301 302 304 307 309 312 314 314 313 313 314 315 315 313 311 309 304 303 300 301 301 301 302 300 297 297 296 297 295 294 292
239 242 244 251 257 270 279 286 291 294 297 299 301 303 306 308 309 311 313 315 315 317 318 317 318 315 311 307 305 301 299 299 301 304 304 302 302 303 303 302 302 301 301
240 245 248 254 261 271 281 285 289 295 297 299 301 302 304 307 309 312 313 316 317 319 320 319 317 314 310 308 304 302 300 302 305 305 305 305 304 305 306 306 305 305 305
242 244 250 257 265 273 276 282 288 292 295 298 298 299 302 305 308 311 314 317 320 318 317 317 316 315 311 308 304 303 304 305 307 307 306 306 306 307 307 307 307 307 305
243 244 249 256 264 272 275 281 285 288 292 295 296 297 300 304 307 311 313 316 318 316 315 316 315 312 310 309 306 304 305 305 305 307 307 307 308 308 309 310 309 306 303
242 245 249 254 261 267 273 278 283 287 292 294 296 298 299 304 308 311 312 314 315 314 313 312 312 310 308 307 307 307 305 305 306 307 309 310 311 311 312 311 309 305 302
242 245 250 254 259 266 272 277 281 285 290 296 297 298 300 304 308 309 310 312 311 311 310 310 310 310 310 307 306 305 306 305 306 308 311 312 313 314 314 317 314 307 303
244 247 251 256 261 266 273 277 280 285 291 294 295 298 301 305 306 308 309 308 308 307 307 307 306 305 304 304 304 303 304 305 306 307 310 311 312 314 315 322 317 309 305
246 249 253 258 263 267 272 276 280 284 288 291 295 298 302 303 304 306 306 305 305 303 304 303 303 303 303 303 303 302 304 306 307 309 310 311 311 315 320 319 313 307 306
246 251 254 257 262 267 271 274 279 282 286 291 294 298 301 302 302 305 304 301 302 301 300 300 301 301 302 301 302 304 305 307 308 309 310 311 312 316 318 317 312 302 306
246 251 255 259 264 267 270 275 278 281 286 291 295 299 299 301 304 302 301 298 298 299 299 299 300 300 300 301 303 304 307 308 309 310 312 312 314 317 316 316 307 299 298
248 252 254 259 262 266 272 274 277 282 288 292 295 297 300 303 301 299 297 296 297 298 299 300 300 300 300 302 304 306 308 308 310 312 312 312 314 314 312 309 308 298 295
244 249 255 258 262 266 270 274 278 283 287 291 295 300 302 300 298 297 296 298 298 298 298 299 299 300 301 303 304 306 306 308 309 309 309 309 309 310 310 306 300 297 293
244 249 253 258 262 267 269 273 278 282 285 291 296 299 299 298 296 296 297 297 297 298 299 300 301 302 304 304 305 307 307 307 308 307 306 307 306 304 304 301 298 293 287
243 248 253 257 263 267 270 275 278 281 285 289 294 296 296 295 294 295 296 297 298 299 300 301 302 303 304 306 307 307 308 307 306 305 305 304 303 302 299 297 291 289 284
243 247 252 259 263 268 272 275 278 280 285 289 292 295 295 294 294 295 297 298 300 301 302 303 304 305 306 307 307 307 305 303 303 303 303 303 303 301 298 297 294 285 280
242 248 253 259 264 269 271 273 277 281 284 288 291 294 295 294 294 296 298 299 300 302 303 304 305 307 306 305 303 302 302 302 301 300 300 300 302 299 296 297 292 286 282
244 250 255 260 264 267 269 273 276 280 284 287 291 292 294 295 295 297 299 300 301 302 303 305 305 305 303 302 302 301 300 299 299 300 301 300 300 301 300 298 290 282 280
Height
10885 10884 10884 10883 10882 10882 10881 10881 10881 10881 10881 10881 10881 10880 10878 10877 10877 10876 10876 10875 10874 10872 10871 10870 10868 10867 10866 10865 10863 10862 10860 10859 10857 10856 10854 10852 10850 10848 10846 10844 10842 10841 10838
10880 10880 10880 10880 10879 10879 10878 10878 10878 10879 10878 10878 10878 10878 10877 10876 10875 10874 10872 10871 10870 10868 10867 10865 10863 10862 10861 10859 10858 10856 10854 10852 10851 10849 10847 10845 10842 10840 10838 10836 10835 10833 10831
10875 10875 10875 10876 10876 10876 10875 10876 10876 10876 10875 10875 10875 10874 10874 10873 10872 10870 10869 10868 10866 10865 10863 10861 10859 10857 10856 10854 10852 10850 10848 10845 10843 10841 10838 10836 10834 10832 10830 10827 10826 10824 10822
10870 10871 10871 10871 10872 10872 10872 10872 10872 10872 10872 10871 10871 10870 10869 10869 10868 10867 10866 10864 10863 10861 10859 10857 10854 10853 10850 10848 10846 10843 10841 10839 10836 10834 10831 10828 10826 10823 10821 10818 10816 10814 10812
10865 10866 10866 10867 10868 10869 10869 10869 10869 10868 10868 10868 10867 10866 10865 10865 10864 10863 10862 10860 10859 10857 10855 10852 10849 10847 10844 10841 10838 10836 10834 10831 10829 10827 10824 10821 10819 10816 10814 10810 10807 10804 10802
10860 10861 10862 10863 10863 10864 10865 10865 10865 10865 10864 10864 10863 10863 10862 10860 10859 10858 10856 10855 10853 10851 10849 10846 10843 10840 10837 10834 10832 10828 10826 10824 10821 10819 10816 10814 10811 10808 10805 10801 10798 10794 10791
10855 10856 10857 10858 10859 10860 10861 10861 10861 10860 10860 10859 10859 10858 10857 10856 10854 10853 10852 10850 10848 10845 10842 10839 10836 10832 10829 10827 10823 10821 10818 10816 10813 10811 10808 10806 10803 10799 10796 10792 10788 10784 10781
10850 10851 10852 10853 10854 10855 10856 10856 10856 10855 10855 10854 10853 10852 10852 10851 10849 10848 10846 10844 10842 10839 10836 10833 10829 10825 10821 10818 10815 10812 10811 10808 10806 10803 10800 10796 10793 10790 10786 10783 10778 10773 10770
10845 10846 10848 10849 10850 10850 10851 10851 10851 10850 10850 10849 10848 10847 10846 10845 10843 10842 10840 10838 10835 10831 10828 10825 10821 10816 10812 10809 10806 10804 10802 10800 10797 10794 10790 10786 10782 10779 10775 10770 10764 10759 10754
10839 10841 10843 10843 10844 10845 10845 10845 10845 10845 10844 10843 10842 10841 10840 10838 10837 10835 10832 10830 10826 10823 10820 10815 10811 10808 10804 10801 10799 10797 10795 10792 10789 10785 10781 10775 10769 10764 10760 10755 10749 10743 10735
10833 10835 10837 10838 10839 10839 10839 10839 10839 10839 10838 10838 10836 10835 10834 10832 10830 10828 10825 10822 10819 10815 10811 10807 10803 10799 10796 10793 10791 10789 10786 10782 10779 10774 10770 10765 10758 10752 10745 10740 10734 10728 10718
10826 10828 10830 10832 10833 10833 10833 10833 10833 10833 10832 10831 10830 10829 10827 10826 10824 10821 10818 10815 10811 10807 10803 10799 10795 10792 10788 10785 10782 10779 10776 10772 10768 10763 10758 10753 10747 10739 10733 10726 10718 10712 10704
10818 10820 10823 10825 10826 10826 10826 10826 10826 10826 10826 10824 10823 10822 10820 10819 10817 10813 10810 10807 10803 10799 10795 10791 10787 10783 10780 10777 10773 10769 10766 10762 10757 10752 10746 10740 10734 10727 10719 10712 10703 10696 10688
10810 10812 10815 10817 10819 10819 10819 10819 10819 10819 10818 10816 10815 10813 10811 10810 10808 10805 10801 10798 10794 10790 10786 10782 10779 10775 10771 10768 10764 10760 10755 10750 10745 10740 10734 10728 10721 10714 10706 10698 10688 10679 10672
10801 10804 10807 10809 10810 10811 10812 10812 10812 10811 10810 10808 10806 10805 10803 10802 10799 10796 10792 10788 10784 10780 10777 10773 10770 10766 10763 10758 10753 10749 10743 10738 10734 10729 10723 10716 10709 10702 10694 10685 10674 10664 10658
10792 10796 10799 10801 10802 10803 10804 10805 10804 10802 10801 10800 10798 10796 10795 10793 10790 10787 10783 10779 10775 10771 10767 10764 10760 10756 10752 10748 10742 10737 10732 10727 10722 10717 10711 10704 10697 10690 10681 10673 10662 10655 10650
10783 10787 10791 10793 10794 10795 10796 10796 10795 10794 10792 10790 10790 10788 10786 10784 10780 10777 10773 10769 10765 10761 10758 10753 10749 10745 10741 10736 10729 10724 10719 10714 10709 10703 10698 10691 10683 10676 10668 10661 10654 10648 10642
10772 10779 10781 10784 10786 10787 10787 10788 10787 10785 10783 10783 10781 10779 10777 10774 10770 10767 10764 10760 10756 10751 10747 10743 10739 10734 10728 10723 10718 10712 10705 10699 10694 10688 10683 10677 10670 10663 10657 10651 10645 10639 10634
10764 10768 10771 10774 10778 10778 10779 10778 10777 10775 10775 10773 10772 10770 10767 10764 10761 10757 10753 10749 10745 10740 10736 10732 10727 10720 10715 10711 10705 10698 10692 10686 10679 10673 10666 10661 10656 10650 10644 10640 10634 10629 10623
10755 10758 10761 10767 10769 10769 10770 10768 10767 10765 10765 10765 10763 10760 10757 10754 10750 10745 10741 10737 10733 10729 10724 10720 10715 10709 10701 10694 10691 10685 10678 10671 10664 10657 10651 10645 10641 10637 10631 10626 10623 10618 10613
10743 10748 10755 10758 10760 10761 10759 10758 10757 10756 10756 10755 10752 10750 10747 10742 10738 10734 10729 10725 10721 10716 10711 10705 10700 10695 10688 10681 10675 10671 10663 10655 10648 10642 10636 10631 10626 10621 10617 10613 10609 10606 10601
10737 10742 10746 10749 10750 10750 10749 10748 10749 10748 10746 10744 10742 10739 10735 10731 10726 10722 10717 10713 10708 10702 10696 10690 10684 10678 10672 10665 10658 10651 10644 10638 10631 10624 10619 10614 10610 10605 10601 10597 10595 10591 10587
10728 10734 10736 10738 10740 10740 10739 10740 10739 10737 10736 10733 10731 10727 10723 10719 10714 10709 10704 10698 10692 10687 10681 10675 10668 10662 10655 10647 10640 10632 10624 10615 10608 10602 10598 10594 10590 10587 10583 10579 10577 10574 10571
10719 10722 10725 10729 10731 10730 10730 10730 10728 10726 10724 10722 10719 10715 10710 10705 10700 10695 10689 10683 10677 10670 10664 10657 10650 10643 10635 10627 10619 10612 10604 10598 10590 10580 10573 10570 10566 10564 10562 10558 10555 10554 10549
10707 10712 10716 10720 10721 10721 10721 10720 10718 10716 10712 10710 10706 10702 10697 10692 10686 10680 10674 10667 10660 10653 10646 10638 10630 10622 10614 10606 10599 10591 10583 10575 10567 10560 10552 10541 10540 10537 10534 10532 10529 10527 10525
10697 10704 10709 10709 10710 10711 10711 10710 10708 10705 10702 10698 10694 10689 10683 10678 10671 10664 10657 10650 10642 10635 10627 10619 10610 10601 10593 10584 10575 10567 10558 10550 10542 10534 10528 10518 10510 10496 10496 10497 10497 10498 10495